sat.trackr.live / text

‹ back to catalog

STARLINK-32714

NORAD 62499 · 2025-003N

PAYLOAD ACTIVE UNKNOWN

§ Identity

Operator
Country
US
Launch date
2025-01-06
Launch site
AFETR
Launch vehicle
Mass (kg)
RCS (m²)

Purposes: comms

External: N2YO · Heavens-Above · Gunter

§ Orbital elements

Epoch: 2026-09-21T16:38:15.599040Z

Period
94.27 min
Inclination
42.9984°
Eccentricity
0.0000545
Mean motion
15.27579755 rev/d
Perigee alt
482.7 km
Apogee alt
483.4 km
Semi-major
6,861.2 km
B*
3.0636e-4
RAAN
262.4018°
Arg perigee
2.8282°
Mean anomaly
357.2573°
Rev number
9,664

§ Raw data

STARLINK-327141 62499U 25003N   26264.69323610  .00008178  00000+0  30636-3 0  99942 62499  42.9984 262.4018 0000545   2.8282 357.2573 15.27579755 96647

JSON: /api/v1/satellites/62499 · /tle

For live sub-satellite position, see the globe view (requires WebGL).

§ Visibility from observer

Set your observer location to see the next 7 days of passes ≥ 10°. The values pass through the URL so the page stays shareable.

No JS? Fill the form by hand. The geolocation button needs JavaScript.